Weather History for KNID - May, 2013

Change the Weather History Date:

Sunday, May 12, 2013

  Actual Average Record
Temperature  
Mean Temperature 78 °F -  
Max Temperature 98 °F 83 °F 98 °F (1997)
Min Temperature 59 °F 56 °F 43 °F (1998)
Cooling Degree Days 13    
Growing Degree Days 28 (Base 50)    
Moisture  
Dew Point 34 °F    
Average Humidity 21    
Maximum Humidity 42    
Minimum Humidity 8    
Precipitation  
Precipitation 0.00 in - - ()
Sea Level Pressure  
Sea Level Pressure 30.01 in    
Wind  
Wind Speed 5 mph (SW)    
Max Wind Speed 12 mph    
Max Gust Speed -    
Visibility 10 miles    
Events      
Averages and records for this station are not official NWS values.
T = Trace of Precipitation, MM = Missing Value Source: NWS Daily Summary

Daily Weather History Graph

Daily Weather History Graph

Search for Another Location

Airport or City:

Trip Planner

Search our weather history database for the weather conditions in past years. The results will help you decide how hot, cold, wet, or windy it might be!

Date:

Astronomy

May. 12, 2013 Rise Set
Actual Time 5:47 AM PDT 7:46 PM PDT
Civil Twilight 5:19 AM PDT 8:15 PM PDT
Nautical Twilight 4:45 AM PDT 8:49 PM PDT
Astronomical Twilight 4:08 AM PDT 9:26 PM PDT
Moon 7:48 AM PDT (5/12) 10:16 PM PDT (5/12)
Length of Visible Light 14h 55m
Length of Day
13h 59m
Waxing Crescent, 7% of the Moon is Illuminated
May 12
Waxing Crescent
May 17
First Quarter
May 24
Full
May 31
Last Quarter
Jun 8
New

Hourly Weather History & Observations

Time (PDT) Temp. Dew Point Humidity Pressure Visibility Wind Dir Wind Speed Gust Speed Precip Events Conditions
12:56 AM 72.0 °F 35.1 °F 26% 30.05 in 10.0 mi South 8.1 mph - N/A   Clear
1:56 AM 69.1 °F 37.0 °F 31% 30.04 in 10.0 mi WSW 6.9 mph - N/A   Clear
2:56 AM 64.9 °F 37.9 °F 37% 30.05 in 10.0 mi SW 6.9 mph - N/A   Clear
3:56 AM 64.9 °F 39.0 °F 39% 30.04 in 10.0 mi SSW 4.6 mph - N/A   Clear
4:56 AM 61.0 °F 33.1 °F 35% 30.05 in 10.0 mi Calm Calm - N/A   Clear
5:56 AM 59.0 °F 36.0 °F 42% 30.07 in 10.0 mi Calm Calm - N/A   Clear
6:56 AM 66.0 °F 37.9 °F 36% 30.08 in 10.0 mi WSW 3.5 mph - N/A   Clear
7:56 AM 72.0 °F 37.9 °F 29% 30.09 in 10.0 mi Calm Calm - N/A   Clear
8:56 AM 79.0 °F 37.0 °F 22% 30.09 in 10.0 mi Calm Calm - N/A   Clear
9:56 AM 84.9 °F 37.0 °F 18% 30.08 in 10.0 mi Calm Calm - N/A   Clear
10:56 AM 90.0 °F 36.0 °F 15% 30.07 in 10.0 mi NNE 3.5 mph - N/A   Clear
11:56 AM 93.0 °F 34.0 °F 12% 30.05 in 10.0 mi Variable 3.5 mph - N/A   Clear
12:56 PM 97.0 °F 27.0 °F 8% 30.03 in 10.0 mi North 5.8 mph - N/A   Clear
1:56 PM 97.0 °F 28.0 °F 9% 30.01 in 10.0 mi NE 6.9 mph - N/A   Clear
2:56 PM 97.0 °F 28.0 °F 9% 29.98 in 10.0 mi Variable 4.6 mph - N/A   Clear
3:56 PM 97.0 °F 28.9 °F 9% 29.96 in 10.0 mi East 5.8 mph - N/A   Partly Cloudy
4:56 PM 97.0 °F 28.0 °F 9% 29.93 in 10.0 mi NW 6.9 mph - N/A   Partly Cloudy
5:56 PM 96.1 °F 28.0 °F 9% 29.92 in 10.0 mi Calm Calm - N/A   Clear
6:56 PM 95.0 °F 28.0 °F 9% 29.91 in 10.0 mi Calm Calm - N/A   Clear
7:56 PM 91.0 °F 37.9 °F 15% 29.91 in 10.0 mi WSW 11.5 mph - N/A   Clear
8:56 PM 84.9 °F 39.0 °F 20% 29.92 in 10.0 mi WSW 6.9 mph - N/A   Clear
9:56 PM 84.9 °F 39.9 °F 20% 29.94 in 10.0 mi West 10.4 mph - N/A   Clear
10:56 PM 78.1 °F 37.9 °F 24% 29.94 in 10.0 mi ESE 4.6 mph - N/A   Clear
11:56 PM 77.0 °F 37.9 °F 24% 29.95 in 10.0 mi South 4.6 mph - N/A   Clear